{"data":{"norad_id":65422,"intl_designator":"2025-192U","name":"STARLINK-35074","alt_names":[],"object_type":"PAYLOAD","status":"ACTIVE","operator":null,"country":"US","launch_date":"2025-08-31","launch_site_code":"AFETR","launch_vehicle":null,"mission":null,"orbit_class":"UNKNOWN","rcs_meters":null,"size_class":null,"mass_kg":null,"dimensions":null,"purposes":["comms"],"wikipedia_slug":null,"has_3d_model":false,"image_url":null,"decayed_at":null,"tle_current":{"epoch":"2026-05-24T23:28:49.949760Z","epoch_age_seconds":77032,"freshness":"FRESH","line1":"1 65422U 25192U   26144.97835590  .00021867  00000+0  74813-3 0  9990","line2":"2 65422  53.1551 238.0403 0001387  90.3859 269.7301 15.30204479 41068","mean_motion":15.30204479,"eccentricity":0.0001387,"inclination_deg":53.1551,"raan_deg":238.0403,"arg_perigee_deg":90.3859,"mean_anomaly_deg":269.7301,"bstar":0.00074813,"rev_number":4106,"period_min":94.10507025447,"perigee_km":474.25113788816,"apogee_km":476.15225404242,"semimajor_km":6853.3386959653,"source":"CELESTRAK","updated_at":"2026-05-25T13:38:20.803116Z"}}}